User: anonymous   Login
Location: PACMO
(41.3967°N, 90.3760°W)
Time: 15:02:32
(UTC-06:00)
Language:

NOAA 19 - Orbit

View from above orbital plane
View from above orbital plane
View from above satellite
View from above satellite

Ground track
Ground track

The orbit data is extracted from the following two-line orbital elements,

1 33591U 09005A   16045.51180189  .00000212  00000-0  14057-3 0  9999
2 33591  99.0245   1.3781 0013455 203.8143 156.2406 14.12039621361688
Epoch (UTC): 14 February 2016 12:16:59
Eccentricity: 0.0013455
inclination: 99.0245°
perigee height: 842 km
apogee height: 862 km
right ascension of ascending node: 1.3781°
argument of perigee: 203.8143°
revolutions per day: 14.12039621
mean anomaly at epoch: 156.2406°
orbit number at epoch: 36168

The dashed part of the orbit path shows where the satellite is in the earth's shadow,  

DLR